CZ-4 DEB, 26194

Orbit data source: Space-Track

CZ-4 DEB, 26194 is space debris in SSO originally from a launch on Thu, 14 Oct 1999 UTC launched from the Taiyaun Space Center, China (TSC). Debris objects in space refer to the collection of defunct objects orbiting the Earth. Examples of debris include non-operational satellites, rocket bodies, and fragments generated from explosions, collisions, or faulty payload assembly.

Loading next visibility...
Identifier
26194, 1999-057CG
Orbit
SSO
Country
Flag of CNCN / PRC
Related business
Manufacturer
Unknown
Mission
Spacecraft
Bus & Motor
Unknown
Mass
Unknown
Launch date (UTC)
1999-10-14 (26 years ago)
Launch vehicle
Unknown
Launch site
Taiyaun Space Center, China (TSC)
Object type
Payload
Rocket body
Debris
Shape & HBR
Unknown shape, 0.2 m
Radar Cross Section
Small (<0.1 m²)

Expand to show TLE details & history
Last TLE update: 4 hours ago

TLE from 4 hours ago
0 CZ-4 DEB
1 26194U 99057CG  26036.85417826  .00005598  00000-0  90473-3 0  9993
2 26194  98.1661 355.9352 0043620  32.5321 350.0782 14.71111306625607
Epoch: 2026-02-05T20:30Z
TLE epoch observation values (Epoch: 2026-02-05T20:30:01.001Z)
Latitude
22.29922°
Longitude
-90.92491°
Altitude
630.08 km
Speed
7.562 km/s
True Right ascension
23h 30m 19s
True Declination
22° 10' 36"
Sunlit
Object was in daylight at epoch
Visualization orbit readout
Latitude
Unknown
Longitude
Unknown
Altitude
Unknown
Speed
Unknown
Apparent Right ascension
Unknown
Apparent Declination
Unknown
Sunlit
N/A
Visualization observer readout
Local Sidereal Time
02:51:47
Azimuth
Unknown
Elevation
Unknown
Doppler factor
Unknown
Orbital elements
Apogee altitude
685.264 km
Perigee altitude
623.911 km
Semi-major axis
7,032.724 km
Eccentricity
0.00436
Inclination
98.1661°
RAAN
355.9352°
Arg. of periapsis
32.5321°
True anomaly
349.99161°
Mean anomaly
350.0782°
Eccentric anomaly
350.03495°
Mean motion
3.68008 °/min
Orbital period
97.82 mins
BSTAR
0.00090473
Loading maneuver chart data...
Computing Atmospheric mass density...
Loading historical data...
Loading historical data...
Loading historical data...
Loading historical data...
Loading historical data...
Loading historical data...
Loading historical data...

Documentation

Showing up to 5 results
|